Wind_Speed
44 44 45 46 47 47 47 48 49 49 50 49 49 48 48 47 47 47 47 48 49 50 51 52 54 55 56 57 58 58 59 60 59 57 58 59 60 61 62 62 63 62 61 59 58 56 55 55 55 55 55 57 59 61 63 63 63 65 66 66 67 68 70 72 74 76 77 78 79 78 79 79 79 79 78 75 72 70 69 67 64 61 57 52 49
42 43 43 44 45 45 45 45 45 46 46 46 46 46 47 47 47 47 49 50 51 52 52 54 55 57 58 59 59 60 61 60 59 58 59 60 61 62 62 62 60 59 57 56 55 53 53 53 53 54 56 57 59 62 63 63 64 65 67 67 68 69 71 73 75 76 77 78 78 78 78 78 79 80 77 73 70 69 69 68 66 64 61 56 51
42 42 42 42 43 42 42 42 42 43 44 44 45 45 46 47 48 48 49 50 52 52 53 55 56 58 59 60 60 61 60 59 58 59 59 60 61 61 60 58 56 55 54 53 52 52 52 53 54 55 57 59 61 62 62 63 64 66 67 67 68 69 71 73 74 76 77 77 77 77 77 78 79 80 78 73 69 68 68 69 68 67 64 60 55
42 42 42 42 42 41 41 41 41 41 42 43 44 44 45 47 48 49 50 51 52 54 55 56 57 58 59 59 59 59 58 58 58 58 59 59 59 58 56 54 53 52 52 51 51 51 53 55 56 57 59 60 61 62 62 63 65 66 67 67 68 69 71 72 74 75 76 76 76 76 76 77 78 79 77 73 69 67 68 69 69 68 64 61 59
44 43 42 42 42 41 41 40 40 40 41 41 42 43 43 45 46 48 50 51 53 54 55 56 56 57 56 56 56 56 56 57 57 57 57 56 55 53 52 51 49 49 50 50 51 53 55 56 57 58 60 61 61 62 63 64 66 67 67 67 68 70 71 72 74 75 75 74 75 75 75 76 78 78 76 72 68 67 68 69 69 68 64 60 60
44 43 43 42 42 41 41 40 39 39 39 40 40 41 41 42 44 46 47 49 51 52 52 53 53 53 53 53 54 54 55 55 55 54 53 52 51 50 48 47 47 50 51 51 53 55 56 57 58 60 62 61 61 63 64 65 66 67 67 67 68 70 71 73 75 76 75 74 73 74 74 76 78 77 76 72 68 66 67 68 68 68 65 60 58
45 44 43 42 41 41 41 40 39 39 39 39 39 39 40 41 41 43 44 46 47 47 48 48 49 49 50 51 51 52 52 52 52 51 50 49 48 47 45 47 50 52 52 52 54 55 56 57 59 61 62 62 62 64 65 66 66 67 68 68 69 71 72 74 76 76 74 73 72 73 73 76 77 76 75 72 69 67 67 66 65 65 64 60 57
45 44 43 42 42 42 41 41 40 39 39 39 39 39 39 39 40 41 42 42 43 44 45 46 46 47 48 48 48 49 49 49 49 49 48 47 45 45 47 50 53 54 53 54 55 56 57 58 60 62 63 63 64 65 66 67 67 68 69 69 70 72 73 75 76 75 73 72 72 72 73 75 76 75 74 71 68 67 66 65 63 63 63 61 58
46 45 44 43 42 42 42 41 40 40 39 39 39 39 39 39 39 39 40 40 41 42 43 43 44 44 44 44 45 45 46 47 47 47 47 47 48 50 52 55 56 56 55 56 57 57 58 59 61 63 64 64 65 67 67 67 68 68 70 70 72 73 74 76 77 75 72 71 71 71 73 75 75 74 72 69 67 65 65 64 62 62 62 61 59
46 45 44 43 43 43 43 42 41 39 39 38 38 38 38 39 38 38 38 39 40 40 41 41 41 40 40 40 41 43 45 46 47 48 50 52 54 56 56 58 59 58 59 59 59 58 58 60 63 64 64 65 67 67 67 68 69 70 71 72 72 73 75 76 77 74 71 70 70 70 72 74 74 72 70 69 67 65 63 62 61 60 60 59 58
46 45 44 43 43 43 43 41 39 38 37 36 36 36 36 37 37 37 38 39 39 39 40 39 38 37 37 39 41 43 45 47 49 53 55 57 59 59 60 61 61 61 61 61 59 58 59 61 63 63 64 66 67 67 68 69 70 71 72 72 73 74 76 77 77 74 71 69 69 69 71 72 72 70 69 68 67 65 63 61 60 59 57 56 55
46 45 44 44 43 43 42 40 38 36 36 36 37 36 36 38 39 39 39 40 40 40 39 36 34 35 37 38 41 45 48 49 53 56 59 61 62 63 63 64 63 63 62 60 59 59 61 62 63 64 65 66 67 68 69 70 71 72 73 73 74 75 76 77 75 72 70 69 68 68 70 71 70 69 68 67 66 65 62 60 59 58 56 55 54
46 45 45 43 42 42 40 39 37 37 37 37 38 37 36 36 38 39 40 42 43 42 40 37 36 37 37 39 43 48 51 52 55 58 60 62 64 66 66 66 65 64 62 60 60 61 62 63 63 64 65 66 68 69 70 71 72 72 73 74 75 76 77 76 73 71 69 68 67 67 68 69 68 67 67 66 66 64 61 59 58 58 57 56 54
45 45 44 43 42 41 40 39 37 37 38 37 36 36 35 35 36 37 39 42 44 44 42 41 41 40 40 42 46 49 51 54 57 59 62 64 67 68 68 67 65 64 63 63 63 63 63 64 63 63 65 67 69 70 71 71 72 72 73 74 75 77 77 74 71 70 69 68 66 66 67 67 67 66 65 65 65 63 60 58 57 57 57 56 54
45 44 44 43 42 40 39 38 38 37 38 37 36 35 36 37 37 36 36 38 40 42 42 42 42 42 43 46 48 50 53 57 60 62 64 67 69 70 70 68 66 65 65 66 66 65 64 64 63 64 66 68 70 71 71 71 71 72 72 74 75 76 75 71 69 68 68 67 66 65 65 66 65 65 65 64 64 63 62 60 59 57 56 56 55
45 44 44 43 42 41 39 39 38 38 38 37 36 36 37 37 37 36 34 34 35 38 40 41 43 44 47 49 50 52 56 61 64 66 67 69 71 71 70 68 68 68 69 69 67 66 65 64 64 66 68 70 71 72 72 72 72 72 72 74 75 74 72 69 68 67 66 66 66 65 64 64 64 65 65 64 64 64 63 62 61 58 56 56 56
45 45 45 43 42 41 40 39 38 38 38 37 37 37 37 37 36 35 34 33 35 38 41 43 46 47 49 50 51 54 59 64 66 68 70 71 72 71 70 69 69 71 71 70 67 65 65 65 66 68 70 72 73 73 73 73 73 73 74 74 73 72 70 69 67 66 66 66 66 66 65 64 64 64 65 65 64 64 63 62 61 59 57 55 55
45 45 44 43 42 41 40 40 39 38 37 37 38 38 37 36 36 35 34 36 39 41 41 43 46 48 48 48 50 56 61 64 66 68 71 72 72 71 70 70 71 73 72 69 66 65 65 66 68 70 71 73 74 75 75 75 74 74 74 73 71 70 69 68 67 65 65 66 67 67 66 66 65 64 65 65 64 63 62 62 61 60 59 56 54
44 45 44 44 44 42 41 40 39 37 38 38 39 39 38 38 38 38 37 38 41 41 41 42 44 44 43 44 49 57 63 65 66 68 70 71 71 71 70 71 73 73 70 67 65 65 66 68 70 71 72 74 76 77 77 77 76 75 73 70 69 68 68 68 66 64 64 66 68 69 69 68 66 66 64 63 63 63 62 62 61 61 60 57 54
44 45 45 45 44 43 42 40 39 38 39 39 39 40 40 40 40 40 39 39 40 40 42 45 45 43 42 45 52 60 64 65 66 67 69 70 71 71 72 73 73 70 68 66 66 66 68 69 71 71 73 75 77 79 80 80 78 75 71 70 69 67 67 66 64 63 63 66 68 69 69 68 67 66 64 62 62 63 64 63 62 61 61 59 57
45 45 45 45 44 43 42 41 40 40 40 40 40 41 41 41 41 41 41 42 41 41 43 47 50 51 51 53 58 61 62 63 64 65 68 72 73 74 73 72 70 68 67 67 67 68 69 70 71 71 73 75 77 80 82 81 79 74 72 70 69 67 65 64 63 62 62 65 67 68 68 67 66 66 64 63 63 64 64 65 64 62 62 61 59
45 45 46 46 45 44 44 43 43 42 42 42 41 42 42 43 43 43 43 43 43 42 43 46 50 53 55 57 58 60 60 61 63 67 72 75 75 74 72 69 68 67 67 68 68 69 70 70 71 72 73 75 77 79 81 80 78 75 72 70 68 66 65 64 63 63 63 64 66 67 66 66 66 65 64 63 63 63 65 66 66 65 63 62 60
46 47 47 47 47 46 47 47 46 45 43 43 43 43 44 44 45 45 46 45 45 44 44 44 46 50 53 56 58 60 62 64 67 70 72 73 72 70 68 67 67 67 68 68 69 70 70 70 71 72 74 76 77 78 78 78 76 73 70 69 68 66 64 64 64 64 64 64 65 65 65 65 65 64 63 63 62 63 64 66 66 65 64 63 62
46 47 48 48 48 49 49 49 48 46 44 44 44 44 45 46 46 47 47 47 47 46 46 45 46 47 49 51 54 56 59 61 64 66 66 67 66 66 66 66 67 67 68 69 70 70 70 71 71 73 75 76 76 76 75 76 75 72 71 70 69 66 64 64 65 66 65 64 64 64 65 65 64 63 62 62 61 62 63 64 65 65 65 65 64
47 47 47 48 49 50 50 50 48 46 46 46 45 45 46 47 48 48 49 49 48 48 48 47 47 48 49 50 51 53 55 57 59 61 62 63 64 65 66 66 67 68 69 69 70 70 71 72 72 74 75 75 74 72 72 73 74 73 72 71 69 65 64 64 65 66 65 64 64 65 66 65 64 62 61 61 60 60 61 62 63 64 65 65 65
47 47 48 48 49 50 50 50 49 47 47 47 47 47 48 48 49 50 50 50 50 49 49 49 49 50 51 51 52 53 55 57 59 61 61 62 64 65 66 67 68 68 69 69 70 71 72 73 74 75 75 73 71 69 69 70 71 72 71 70 67 64 63 64 65 65 65 65 65 66 66 65 64 62 61 60 59 59 59 61 62 62 63 63 64
47 47 47 48 49 50 50 50 49 48 49 49 49 49 49 50 50 51 51 51 51 51 51 51 51 52 53 53 54 55 55 57 60 62 63 64 65 66 67 67 68 69 69 69 70 71 73 74 75 75 74 71 69 68 68 68 68 69 68 67 65 63 62 62 63 64 64 65 66 67 66 65 64 62 60 60 59 58 58 59 60 61 61 61 62
46 47 47 48 48 49 49 49 49 50 50 51 51 51 51 51 51 52 52 52 52 52 52 52 53 53 54 54 55 56 57 58 60 62 63 65 66 67 68 69 69 70 70 70 71 73 74 75 76 75 72 70 68 68 67 67 67 66 65 64 63 61 61 61 61 62 64 66 67 67 66 64 63 61 60 59 58 56 57 58 59 59 59 60 60
47 48 48 48 48 48 49 49 50 51 52 52 52 52 53 53 52 53 53 54 54 53 53 54 54 55 56 57 57 58 60 60 60 62 64 65 67 68 69 69 70 70 71 72 73 74 75 75 75 73 70 69 68 67 66 66 65 65 64 62 61 60 60 60 61 63 65 67 68 67 65 63 62 61 60 58 56 55 55 56 57 57 57 58 59
48 49 49 48 48 48 49 50 51 52 53 53 53 54 54 53 53 54 54 55 55 55 55 56 56 57 58 59 60 60 61 61 61 63 64 65 67 69 70 70 70 71 72 73 74 76 76 75 73 70 69 68 67 66 65 64 64 64 64 63 62 61 60 60 62 64 67 68 67 66 63 62 61 60 59 58 56 54 54 55 56 56 56 57 58
49 50 50 49 49 49 50 50 51 53 54 53 53 54 55 55 55 55 56 56 56 57 58 58 59 59 60 61 61 62 62 62 62 63 64 65 67 69 70 70 71 72 73 74 76 77 76 74 71 69 68 68 66 65 64 64 64 64 64 63 61 60 60 61 64 66 68 68 66 64 63 61 60 60 59 57 55 53 52 53 55 55 54 55 57
50 51 51 51 51 51 52 52 52 53 54 54 54 55 56 56 56 57 57 57 58 59 60 60 60 61 61 62 62 62 62 63 64 64 65 66 67 68 69 70 71 72 74 75 76 76 74 71 69 69 68 67 66 65 64 63 64 64 63 61 60 59 60 63 66 68 68 66 64 63 62 61 61 60 59 57 55 52 51 52 53 52 52 53 55
51 51 52 53 53 53 54 54 53 54 54 55 55 56 57 57 58 58 58 59 60 61 61 61 62 62 62 62 63 64 64 64 65 65 66 67 68 68 69 69 71 72 74 75 76 75 72 69 69 69 67 66 66 65 64 64 64 64 62 60 60 61 62 64 67 68 67 64 62 62 62 62 61 60 59 57 54 51 49 50 51 51 50 51 53
53 53 54 54 54 54 55 55 55 55 55 55 56 57 58 58 59 59 60 61 61 62 62 62 62 63 63 63 64 65 65 65 65 66 67 67 68 69 69 70 71 73 75 75 74 72 69 68 68 68 67 66 65 64 63 63 64 63 62 62 62 63 64 66 67 67 63 61 61 61 62 62 61 60 59 57 54 50 48 49 51 50 48 49 51
56 56 56 56 55 54 54 55 55 56 57 57 57 58 59 59 60 61 61 62 62 63 63 63 63 64 64 65 66 66 66 66 66 67 67 68 68 69 70 71 72 74 75 74 71 69 67 67 68 68 67 66 65 64 63 63 63 63 63 63 64 65 66 67 66 64 61 60 61 62 62 63 61 59 58 55 52 49 48 48 50 49 47 47 49
58 58 58 57 56 55 55 54 55 56 57 58 58 59 60 60 61 62 63 63 63 64 64 64 65 65 66 66 66 66 67 67 67 68 68 69 70 70 71 72 73 74 74 71 69 66 66 66 67 68 67 66 65 64 63 62 62 62 62 63 65 66 67 66 64 62 60 60 61 62 63 63 62 59 57 55 51 48 47 47 49 49 48 47 48
59 58 58 57 57 56 56 56 56 56 57 59 59 60 61 61 61 62 63 64 65 65 65 65 66 66 67 67 67 67 67 67 68 68 70 70 71 72 73 74 74 73 71 68 66 65 65 66 67 68 68 67 65 64 63 62 62 62 62 64 66 67 66 65 64 62 61 61 62 63 64 63 61 58 56 54 52 49 47 48 50 50 48 46 47
59 58 58 58 58 58 58 58 57 57 58 59 60 60 61 62 62 63 64 65 65 66 66 67 67 68 68 68 68 67 67 68 69 70 71 72 73 74 75 75 73 71 68 66 65 65 66 67 68 68 67 66 65 64 63 63 63 62 62 64 66 67 66 65 65 63 62 62 62 63 63 62 59 56 55 54 52 50 47 47 49 50 48 46 46
59 59 60 61 61 61 60 60 59 58 58 59 60 61 61 62 63 63 64 65 66 67 67 68 69 69 68 68 69 69 69 69 70 71 72 73 74 75 75 74 72 69 66 65 64 65 66 67 68 67 66 64 64 63 63 63 63 63 62 64 66 67 66 66 65 64 63 62 62 62 61 60 57 55 54 53 52 50 47 46 48 50 49 46 45
63 63 63 63 63 63 63 62 61 59 59 59 60 61 61 62 63 64 64 65 67 68 68 68 69 69 69 69 70 71 71 71 72 73 74 75 76 76 75 72 70 67 66 65 65 65 66 67 66 65 63 62 62 62 62 63 63 63 63 65 66 67 67 66 64 63 63 62 61 60 59 57 56 55 53 53 52 51 47 46 47 49 49 46 44
66 66 65 65 65 64 64 63 62 61 60 60 61 61 62 63 63 64 65 66 67 68 68 69 69 70 70 71 72 72 72 73 75 76 76 77 76 75 73 71 68 67 66 66 66 67 67 66 64 62 60 60 60 60 62 64 65 64 65 67 67 67 67 66 64 63 63 61 59 57 56 55 55 54 53 53 53 51 48 47 47 48 48 46 44
67 67 66 66 65 65 64 63 62 61 61 61 62 62 63 64 64 65 65 66 67 68 69 70 70 71 72 73 74 74 74 75 77 78 78 77 75 73 72 70 69 68 68 68 68 68 67 65 62 60 58 58 58 59 62 65 65 65 66 67 67 65 65 64 63 63 62 59 57 56 55 55 55 54 54 54 53 51 49 48 47 47 47 46 44
66 66 66 66 65 65 64 63 62 61 62 62 63 64 64 65 65 66 66 67 67 69 70 71 72 72 73 75 76 76 77 77 78 78 77 76 74 72 70 70 70 70 71 71 70 69 67 63 60 59 57 57 57 59 61 63 63 64 64 64 63 62 62 62 61 61 59 58 56 56 55 55 55 55 54 54 53 52 51 50 48 48 47 46 44
65 65 65 65 64 63 62 62 62 62 63 63 64 65 65 66 66 67 68 68 69 70 71 73 74 74 75 77 78 78 79 78 78 77 76 74 73 72 71 72 72 73 73 73 71 68 64 60 58 57 57 56 56 57 59 60 61 62 62 60 59 59 60 60 60 59 58 57 56 56 55 55 55 54 54 53 52 52 53 52 50 48 48 47 45
64 64 63 62 61 61 61 61 62 63 64 64 65 65 66 67 67 68 70 71 71 72 73 74 75 76 77 79 80 79 79 78 76 75 75 74 74 74 74 75 75 75 74 71 68 64 60 58 56 55 54 54 54 55 56 57 59 60 60 59 59 59 59 59 59 59 58 57 57 56 55 55 54 54 53 53 53 53 54 53 51 50 49 49 47
62 61 60 59 59 60 60 62 63 65 65 65 66 66 67 68 69 70 72 72 73 74 76 77 78 79 79 80 80 79 77 76 75 75 76 76 76 77 77 76 75 72 69 66 62 59 57 56 54 53 53 53 53 53 55 56 57 58 58 58 58 58 59 59 59 59 58 57 56 55 54 53 53 53 53 54 54 54 54 53 52 50 49 48 46
58 58 58 59 59 60 61 63 64 65 66 67 67 68 69 70 71 72 73 74 75 77 78 79 79 80 79 79 78 77 76 76 77 78 79 79 78 77 75 72 69 66 63 60 58 56 55 54 53 53 53 53 53 53 54 55 56 56 56 57 56 57 58 58 57 57 57 56 55 54 53 53 54 54 55 55 55 54 54 53 52 52 51 49 47
57 58 59 60 60 61 62 64 65 66 67 69 69 70 71 72 73 74 76 77 78 79 79 80 79 78 77 77 76 77 77 78 79 78 77 75 72 69 66 64 61 59 57 56 55 54 54 54 54 54 55 55 55 55 56 56 56 56 56 56 56 56 57 57 56 56 56 55 55 55 56 56 56 55 55 55 54 54 53 53 53 52 51 51 49
58 59 60 61 62 63 64 65 66 67 69 70 71 71 72 74 75 77 78 79 79 79 78 78 77 77 77 78 78 78 77 76 74 71 68 65 62 60 58 57 56 55 55 54 54 53 53 54 55 55 56 57 57 57 57 57 57 58 57 57 57 58 58 58 57 57 57 57 57 57 58 57 57 57 56 55 54 53 53 53 52 52 51 49 48
60 61 62 63 64 64 65 66 67 68 70 71 72 73 74 76 77 78 78 78 77 76 76 77 77 78 78 77 75 72 69 66 64 62 61 59 58 57 56 55 55 55 54 53 53 53 53 54 54 55 55 56 57 57 57 57 58 58 58 58 58 59 59 59 58 58 58 58 58 58 58 58 57 57 56 55 55 54 54 53 52 51 50 48 47
61 62 63 64 65 66 67 68 69 70 72 73 74 75 76 76 76 76 75 75 75 76 77 77 76 75 72 69 67 64 62 61 60 59 59 58 57 57 56 55 55 54 53 52 52 52 52 52 52 52 53 54 55 55 56 56 57 58 57 57 58 58 58 58 58 58 58 58 57 57 57 57 57 56 56 55 55 54 54 54 53 51 50 49 48
Wind_Direction
262 264 265 266 267 267 268 269 269 270 271 272 272 272 273 272 271 270 268 268 270 272 274 275 277 279 281 283 286 289 291 293 295 295 296 296 296 297 299 300 302 303 304 305 306 307 307 308 308 310 311 312 314 316 318 319 320 321 322 322 323 322 323 323 323 324 324 324 325 325 325 327 327 327 330 331 330 328 328 328 330 332 332 331 330
263 264 265 266 267 267 268 269 270 271 272 272 272 271 271 270 269 268 267 268 270 272 274 275 277 278 281 283 286 288 291 293 294 295 295 296 297 298 300 301 303 304 305 307 308 308 308 309 310 311 312 314 316 318 320 320 321 322 322 322 323 323 323 324 324 325 325 325 326 326 326 327 327 328 331 332 331 330 330 331 332 333 333 332 332
263 264 265 266 267 268 269 270 271 271 272 272 271 270 270 269 269 269 269 270 271 273 274 275 277 279 281 284 286 289 291 292 294 294 295 296 297 299 301 303 304 306 307 308 309 309 309 310 310 312 313 315 318 320 320 320 321 321 322 322 323 323 324 324 325 326 326 326 326 327 327 328 328 329 331 333 333 332 333 333 333 334 334 332 332
264 264 265 266 268 269 270 271 271 272 272 272 271 271 270 270 269 270 271 272 272 273 275 276 278 281 283 286 288 289 291 292 293 294 295 297 298 300 302 304 306 308 310 311 311 311 312 312 312 314 315 317 319 320 320 320 321 321 321 322 323 324 324 325 326 326 326 327 327 327 328 328 328 330 332 334 335 334 335 335 334 334 335 334 332
263 264 265 267 268 269 270 271 272 272 273 273 273 272 272 271 271 271 272 272 273 275 276 278 281 283 285 287 288 290 291 292 293 295 296 298 299 301 304 307 309 312 313 313 313 314 314 314 315 316 317 318 319 319 319 320 320 321 322 323 323 324 325 325 326 327 327 327 327 328 328 329 329 330 332 335 336 336 337 336 334 333 335 335 333
263 264 265 267 268 269 270 271 272 273 273 274 274 274 274 274 273 273 274 274 275 277 279 281 283 285 286 287 288 289 291 293 294 296 297 299 301 303 307 309 312 314 315 315 315 315 315 315 316 317 318 319 319 319 319 320 320 321 322 323 323 324 325 326 327 327 327 327 328 328 329 329 330 331 333 335 336 337 337 336 335 333 334 335 334
263 264 266 267 268 269 270 271 272 273 274 275 275 276 276 277 277 277 277 277 278 280 281 282 284 285 286 287 289 291 292 294 295 296 298 300 302 306 309 311 313 315 316 317 317 317 316 316 317 318 319 319 319 319 319 320 320 321 322 322 323 324 325 326 327 328 328 328 328 329 330 330 330 331 334 335 336 338 338 336 335 334 333 335 335
263 264 265 267 268 269 270 272 273 274 275 277 278 279 280 280 279 279 279 279 280 281 281 283 284 285 287 289 291 292 293 294 295 297 300 302 304 307 309 312 315 316 317 318 319 318 317 317 317 319 320 319 318 318 319 320 321 321 322 322 323 324 325 327 328 328 328 328 329 330 330 330 331 332 333 335 336 337 337 336 335 335 335 335 335
262 263 265 266 267 269 270 272 273 275 277 279 280 280 280 280 279 279 280 280 281 281 282 284 285 288 290 292 293 293 294 295 298 300 302 304 305 306 309 313 316 318 319 319 319 318 317 318 319 319 319 318 318 318 319 320 321 321 321 322 323 324 325 327 328 328 328 328 330 331 330 330 331 332 333 334 335 337 337 336 336 337 337 336 334
261 262 264 266 267 269 270 272 274 276 278 279 280 281 281 280 280 279 279 280 280 282 283 285 288 290 291 292 293 295 297 299 301 304 305 305 306 308 311 314 316 318 319 319 318 317 318 318 319 318 318 317 317 318 319 320 321 321 322 322 323 324 326 327 328 328 328 329 330 331 330 330 331 332 333 334 335 337 337 337 337 338 338 337 335
261 262 263 265 266 267 269 271 274 276 278 278 278 279 277 275 275 276 277 278 280 283 285 286 287 289 292 295 298 298 300 303 304 305 305 305 307 309 311 314 316 317 318 318 317 317 318 318 318 317 317 317 317 318 319 320 321 321 322 323 323 324 326 327 327 327 328 329 330 331 330 330 330 331 332 333 335 336 338 338 337 338 338 337 336
260 261 262 263 265 267 269 271 273 274 275 275 275 276 275 272 272 275 278 279 282 286 289 288 288 292 298 303 303 301 302 303 303 303 304 305 306 308 310 312 314 315 317 317 317 317 318 317 317 317 317 317 317 318 319 320 321 321 322 323 323 325 326 326 326 327 327 328 329 331 330 329 330 331 332 333 334 335 337 338 337 337 338 338 337
260 260 261 262 264 266 268 270 272 273 274 275 277 280 281 277 273 275 278 280 283 286 287 287 289 294 300 301 300 299 301 302 301 301 302 303 304 306 308 310 312 314 315 316 317 317 317 316 317 317 316 316 317 318 319 320 320 321 322 322 323 325 325 325 325 326 326 327 329 330 330 329 329 330 332 333 333 334 336 337 337 338 339 339 338
260 261 261 262 263 265 267 270 272 274 275 277 279 281 281 279 276 277 278 279 281 282 282 283 286 290 292 293 293 296 298 298 298 299 300 300 302 304 306 308 311 313 315 316 317 316 316 316 316 316 316 316 316 318 319 319 320 321 321 322 323 324 324 324 324 325 325 326 328 330 330 329 329 330 332 332 332 332 335 338 339 339 339 340 339
260 261 262 262 263 265 267 270 272 274 276 278 280 280 280 279 279 280 278 278 279 279 280 282 284 285 286 287 290 294 295 295 295 296 297 298 299 302 305 308 310 312 314 316 316 315 314 315 315 315 315 315 316 317 318 318 319 320 321 321 322 322 322 322 323 324 324 325 328 330 330 329 328 329 331 331 331 333 336 339 340 340 339 340 341
260 261 262 263 264 266 267 269 271 273 276 277 278 279 280 281 282 282 280 278 277 276 278 279 279 279 281 284 288 291 292 292 292 293 294 296 298 301 304 307 309 311 313 314 314 313 313 314 314 315 315 315 316 317 317 318 318 319 320 320 320 320 321 321 323 323 324 325 327 330 331 329 329 329 330 331 333 335 337 339 339 339 340 341 342
261 262 263 264 265 266 267 269 271 272 275 276 277 278 280 282 283 281 280 278 275 273 273 274 275 276 278 282 286 289 291 292 292 292 294 296 298 301 303 305 307 309 311 312 311 311 312 313 314 315 315 315 316 316 316 317 317 318 318 318 319 319 320 321 322 323 324 325 328 330 331 331 329 330 331 333 334 335 336 337 338 339 340 341 342
260 261 263 264 265 266 267 269 271 273 274 276 277 277 278 279 279 278 277 275 275 275 274 273 275 278 280 284 288 288 288 289 291 293 294 295 297 299 301 302 304 306 308 309 309 310 311 313 314 314 314 315 315 314 315 315 316 316 317 317 318 320 320 321 322 323 324 326 328 330 331 331 331 332 334 333 333 334 335 337 338 339 339 340 341
257 259 261 263 264 266 268 270 271 273 273 274 275 276 277 278 277 278 277 274 275 277 276 274 275 279 283 286 286 283 282 283 286 288 290 292 294 296 298 299 302 304 306 307 308 310 311 312 312 313 313 314 313 313 313 314 314 315 317 318 320 321 320 320 321 323 326 327 328 329 331 332 332 334 334 333 333 334 335 336 338 339 338 338 340
256 258 259 261 264 266 268 270 271 272 271 272 274 275 277 278 278 280 279 277 276 274 270 267 269 271 271 272 274 276 278 281 284 286 288 290 292 294 296 298 301 303 304 306 308 309 309 309 310 312 313 312 312 312 313 313 314 316 318 319 321 321 320 320 321 324 327 328 327 328 331 331 331 332 333 333 334 335 336 336 337 338 338 338 340
256 257 259 261 264 266 268 269 270 270 270 271 272 274 276 277 278 279 280 280 279 276 269 264 265 266 267 269 272 275 278 280 283 285 286 288 290 294 296 298 300 302 304 306 307 307 307 308 310 311 311 311 311 312 312 313 315 317 318 319 320 320 320 320 322 325 327 327 325 326 329 330 330 331 333 334 335 336 336 336 336 337 338 338 338
256 258 259 261 264 265 267 268 268 268 269 270 271 272 274 276 277 278 279 279 280 278 274 269 266 266 269 271 274 275 276 278 280 282 284 287 290 293 295 297 299 301 303 304 304 304 305 307 309 309 310 310 311 311 312 313 314 316 317 318 320 321 321 322 324 325 326 325 323 325 327 328 328 330 331 333 334 335 336 336 336 337 337 336 336
258 259 260 262 264 265 266 266 267 268 269 269 270 271 273 275 276 277 279 279 280 279 277 274 271 269 269 270 272 274 275 276 277 279 282 286 290 292 295 297 299 300 301 302 302 303 305 306 307 308 309 310 310 311 311 311 312 314 316 318 320 322 323 323 323 323 324 323 322 324 326 327 327 329 330 332 333 335 336 336 336 336 335 335 336
260 261 262 263 263 264 265 266 267 268 268 268 269 270 272 273 275 277 278 279 280 280 279 278 277 276 275 274 275 276 277 278 280 282 285 288 290 293 295 296 297 299 300 301 302 303 304 305 307 307 308 310 310 310 310 310 312 315 317 319 321 322 322 321 320 320 321 321 322 323 325 326 327 328 329 331 332 335 336 335 335 335 335 335 335
262 263 263 264 264 265 265 266 267 267 266 267 268 269 271 272 274 276 277 278 280 280 280 279 279 280 280 280 280 281 282 283 284 285 288 290 291 293 294 295 296 298 299 301 302 303 304 305 306 308 309 310 310 310 310 311 313 316 317 318 319 320 320 319 317 318 319 321 323 323 324 325 327 327 328 329 331 334 335 334 334 336 336 335 334
264 265 265 265 265 265 266 267 267 266 266 267 267 268 270 271 273 275 277 279 280 280 280 280 280 281 282 282 283 284 285 285 286 288 290 291 291 292 294 295 296 298 300 301 302 303 304 305 307 308 309 309 309 310 310 311 312 313 313 315 317 318 317 315 315 317 319 321 322 322 322 324 325 326 326 328 330 332 334 334 334 335 335 334 333
266 266 266 266 266 266 267 268 268 267 267 267 267 268 269 270 272 274 277 278 279 279 280 281 281 281 282 284 284 285 286 287 288 290 292 292 292 294 295 296 297 299 300 302 302 303 304 306 307 309 309 309 310 310 310 310 310 310 311 312 314 315 314 312 314 316 318 319 320 321 321 322 323 324 326 327 329 331 333 333 333 334 334 333 333
268 268 268 268 268 269 269 269 269 269 268 268 268 268 269 270 272 274 275 277 278 279 280 281 281 282 283 284 285 286 287 288 290 291 292 293 294 295 296 297 299 300 301 301 302 303 305 307 308 309 309 309 309 309 309 309 309 309 310 311 312 311 311 311 313 316 317 319 319 319 320 320 321 323 326 327 329 331 333 332 332 333 333 333 333
268 269 269 270 270 270 271 271 271 270 269 269 269 269 269 270 272 273 274 276 277 279 279 280 280 282 283 284 285 287 288 290 292 292 293 294 295 296 297 298 299 300 300 301 303 304 306 307 308 308 308 307 307 307 307 308 308 309 309 310 309 310 311 312 314 315 316 317 317 317 318 318 320 322 325 326 328 331 332 331 331 332 334 333 333
269 270 271 271 271 271 271 271 271 271 271 271 271 270 270 271 271 273 274 275 276 277 278 279 280 281 283 284 286 288 289 291 292 293 293 295 295 296 297 298 299 299 300 302 303 304 305 306 307 306 306 306 306 305 306 306 307 308 308 309 310 311 313 313 312 312 313 314 314 315 316 317 318 321 324 326 328 330 331 330 330 332 333 333 333
270 271 272 272 271 270 270 270 271 271 272 272 272 271 271 271 271 272 274 275 276 277 278 279 280 282 283 285 287 288 290 291 292 292 293 294 294 295 296 297 298 299 300 302 303 304 305 305 305 304 304 304 304 304 305 306 306 306 307 309 311 312 311 309 307 308 310 311 312 314 315 316 318 321 323 325 327 329 330 330 329 331 333 333 333
271 271 271 271 270 270 270 270 270 271 272 273 274 273 273 273 273 273 274 275 276 277 278 279 281 283 284 286 287 288 289 290 291 292 293 293 294 295 296 296 297 299 300 301 302 302 303 303 302 302 303 304 304 304 305 305 305 306 307 308 309 308 306 304 304 306 308 310 311 313 314 316 318 320 322 324 326 328 329 328 328 330 332 333 334
271 271 271 271 270 270 270 270 270 271 272 273 274 274 274 274 274 274 275 275 276 277 278 280 282 283 285 286 287 288 289 290 291 292 293 293 294 295 295 296 297 298 299 300 301 301 301 301 300 301 302 303 303 303 303 303 303 304 305 305 304 303 301 301 303 305 307 308 310 312 314 315 317 319 321 323 325 327 327 327 327 329 332 333 333
271 272 272 272 272 271 271 271 270 270 271 272 273 274 274 274 274 275 275 276 277 278 280 281 283 284 285 286 287 288 289 290 291 292 292 293 294 294 295 296 297 298 299 299 299 299 299 299 299 300 301 302 301 301 301 301 301 302 302 301 300 301 301 301 303 305 306 308 310 311 313 314 316 318 320 322 324 326 327 326 326 328 331 332 333
271 272 273 274 274 274 273 272 272 271 271 271 272 273 274 275 276 277 277 278 278 279 281 282 283 284 285 286 287 288 290 290 291 292 292 293 294 294 295 296 297 297 298 299 298 297 297 298 299 300 300 300 299 298 298 297 298 298 299 299 299 299 300 301 302 304 305 307 308 310 312 314 315 317 319 320 322 324 326 325 324 325 329 331 332
271 272 273 274 275 275 275 274 273 272 271 271 272 273 275 276 277 278 278 279 280 281 282 283 284 285 286 286 287 288 290 291 292 292 293 293 294 295 295 296 297 298 298 298 297 296 297 298 299 299 299 299 297 296 295 295 295 296 297 296 296 297 298 301 302 304 305 306 308 310 311 312 314 316 317 318 320 323 324 324 323 324 328 331 331
270 271 272 273 274 275 276 275 274 273 272 272 272 273 274 276 276 277 278 279 280 281 283 284 284 285 286 287 288 289 290 291 292 292 293 293 294 295 295 296 297 298 297 296 295 296 297 298 298 298 298 297 296 295 294 294 294 294 295 294 295 296 298 300 302 303 304 305 307 308 309 310 312 314 315 316 318 321 323 324 322 323 326 329 329
270 270 271 272 274 275 276 277 276 274 272 272 272 273 274 276 277 278 279 280 281 282 283 284 285 285 286 287 289 290 290 291 291 292 292 293 294 295 296 297 297 296 295 294 295 296 297 298 298 298 297 296 295 294 293 293 293 293 293 293 294 296 298 299 301 302 303 304 305 306 307 309 311 312 313 314 316 318 321 322 321 321 324 327 327
270 270 270 272 274 276 277 278 277 275 273 272 272 273 274 276 278 279 280 281 282 282 283 284 285 286 287 288 289 290 290 291 291 291 292 293 294 294 295 296 296 295 294 294 295 296 297 298 298 298 297 295 293 292 292 292 292 292 292 292 293 295 297 299 300 301 301 301 302 304 305 307 309 310 311 313 314 316 319 320 319 318 321 324 325
270 271 272 273 275 276 278 278 277 275 273 272 272 274 276 277 279 280 281 281 282 283 284 285 286 287 288 289 289 289 290 290 291 291 292 293 294 295 295 295 294 294 293 294 295 296 297 298 298 297 295 293 292 291 291 290 289 290 290 290 291 293 296 297 298 298 298 299 302 303 304 306 308 309 310 311 312 314 316 318 317 317 319 321 323
270 271 272 274 275 276 277 276 276 275 274 274 274 276 277 278 279 280 281 281 282 283 284 285 286 287 288 288 288 289 290 291 291 292 293 294 294 295 294 294 293 293 294 295 296 297 297 297 296 294 292 291 290 288 286 285 286 286 286 287 289 291 293 294 295 295 296 299 301 302 303 305 307 308 309 310 310 312 314 315 315 316 317 318 320
270 271 272 273 274 275 275 275 275 274 274 275 276 277 278 279 279 280 281 281 282 283 284 285 286 287 288 288 288 289 290 291 292 293 293 294 294 294 293 293 294 294 294 295 296 296 296 296 294 292 290 288 287 285 283 283 285 285 285 286 289 290 291 291 292 293 295 298 300 301 302 304 305 307 308 308 309 310 312 313 313 314 315 316 317
270 271 272 273 274 275 275 275 274 274 275 275 276 277 278 279 280 281 282 282 283 284 284 285 286 287 287 288 288 290 291 291 292 293 293 293 293 293 293 293 293 294 294 295 296 296 295 294 292 290 289 287 285 283 283 283 284 284 285 287 288 289 289 290 291 292 295 297 298 300 301 303 304 305 306 307 308 309 310 311 312 314 314 314 315
270 271 272 273 274 274 274 274 274 274 274 275 276 278 279 280 281 282 283 283 284 284 285 285 286 287 287 288 289 290 291 292 292 292 292 292 292 292 293 293 293 294 294 295 295 294 293 292 291 289 288 286 284 283 283 284 284 285 286 287 288 288 289 290 291 293 294 296 297 299 300 302 303 304 305 305 306 307 308 309 311 312 313 313 314
270 271 272 272 272 272 272 272 273 274 275 276 277 279 280 281 282 283 283 284 284 285 286 286 287 288 289 289 290 291 292 292 292 292 292 292 292 293 293 293 293 294 294 294 293 292 291 291 290 289 288 286 284 284 284 284 285 286 287 288 288 288 289 290 291 293 294 295 296 298 299 300 301 302 303 304 305 305 306 308 310 311 311 312 313
270 270 270 270 270 271 271 272 274 275 276 278 279 280 281 282 282 283 284 285 286 286 287 288 288 289 290 290 291 291 292 292 292 292 292 292 292 293 293 293 292 292 292 291 290 290 289 289 289 288 287 285 284 284 284 284 285 286 287 287 288 289 289 290 291 292 293 295 296 297 298 299 299 300 301 302 303 304 305 306 308 308 308 309 309
269 269 269 270 270 271 273 274 275 277 278 279 280 281 282 282 283 284 285 286 286 287 288 289 289 290 290 290 291 291 292 292 292 292 292 292 292 292 291 291 290 289 289 288 287 287 286 286 285 285 284 284 284 283 283 284 285 285 286 287 288 289 289 289 290 291 293 294 295 295 296 297 297 298 299 300 301 303 304 305 306 307 307 307 308
268 268 269 270 271 273 274 275 276 278 279 280 281 282 283 284 285 285 286 287 287 288 289 289 290 290 290 291 291 291 292 292 291 291 291 290 290 290 289 289 289 288 287 287 286 286 285 284 284 284 283 283 283 283 284 284 285 285 286 287 287 288 288 289 290 291 292 293 294 294 295 296 296 297 298 299 300 302 303 304 304 305 305 306 307
268 269 270 271 272 274 275 276 277 278 280 281 282 283 284 285 286 287 287 288 289 289 290 290 290 291 291 291 291 291 291 291 290 290 290 289 289 289 289 289 289 288 288 287 287 286 286 285 284 284 284 284 284 284 284 284 285 285 286 286 286 287 287 288 290 290 291 292 292 293 294 295 296 297 298 299 300 301 302 302 302 302 303 304 304
269 271 272 273 274 275 276 277 278 279 280 281 283 284 285 285 286 287 288 288 289 290 290 290 291 291 291 291 291 290 290 289 289 289 289 289 289 289 289 289 288 288 288 287 287 287 286 285 285 284 284 284 284 284 285 285 285 285 285 285 286 286 287 288 289 289 290 290 291 292 293 295 296 297 298 299 300 300 300 300 300 301 301 302 301
271 272 273 275 276 276 277 278 279 280 281 282 283 284 285 286 287 287 288 289 290 290 291 291 291 291 290 290 290 290 290 289 289 289 289 289 289 289 289 288 288 287 287 287 287 286 285 285 285 285 285 285 285 285 285 284 284 285 285 286 286 286 287 287 288 289 289 290 291 292 293 294 295 296 297 298 298 298 298 299 299 300 300 300 299
Height
10680 10680 10680 10680 10680 10680 10681 10680 10680 10679 10678 10678 10678 10678 10678 10678 10678 10678 10677 10676 10676 10675 10673 10672 10670 10669 10667 10666 10665 10663 10662 10660 10659 10656 10654 10652 10649 10647 10644 10642 10639 10636 10633 10629 10625 10621 10617 10614 10610 10606 10602 10598 10594 10589 10584 10580 10575 10570 10565 10560 10554 10549 10543 10537 10532 10525 10518 10512 10506 10499 10491 10484 10477 10470 10464 10455 10445 10437 10429 10422 10417 10412 10407 10403 10399
10676 10676 10676 10676 10676 10676 10676 10676 10676 10674 10674 10673 10673 10673 10673 10673 10673 10673 10672 10671 10670 10669 10668 10667 10665 10664 10663 10661 10660 10658 10656 10655 10653 10651 10648 10646 10643 10641 10639 10637 10634 10631 10627 10624 10620 10616 10613 10609 10605 10601 10597 10593 10588 10584 10579 10575 10570 10565 10560 10555 10549 10544 10538 10532 10526 10520 10513 10506 10499 10492 10485 10479 10471 10465 10459 10451 10442 10433 10424 10416 10410 10405 10399 10395 10392
10671 10672 10672 10672 10672 10672 10672 10672 10671 10670 10669 10669 10668 10668 10668 10669 10669 10668 10667 10666 10665 10664 10663 10662 10660 10659 10658 10656 10655 10653 10651 10649 10647 10645 10643 10641 10638 10636 10634 10632 10629 10625 10622 10619 10615 10611 10608 10604 10600 10596 10592 10588 10583 10579 10575 10570 10566 10561 10556 10550 10545 10540 10534 10528 10522 10515 10508 10501 10494 10487 10480 10474 10467 10459 10452 10446 10438 10429 10420 10411 10404 10400 10394 10387 10384
10666 10667 10667 10668 10667 10667 10667 10667 10667 10666 10665 10664 10664 10664 10664 10664 10664 10663 10662 10661 10660 10659 10658 10657 10655 10654 10653 10651 10649 10647 10646 10644 10642 10640 10638 10636 10634 10631 10629 10627 10624 10620 10617 10614 10610 10607 10603 10598 10594 10590 10587 10582 10578 10574 10570 10565 10561 10556 10551 10546 10541 10536 10530 10524 10518 10512 10505 10497 10490 10483 10476 10469 10462 10454 10447 10441 10433 10424 10416 10408 10400 10395 10391 10384 10376
10661 10663 10663 10663 10663 10663 10663 10663 10663 10662 10661 10660 10660 10660 10660 10660 10659 10658 10657 10656 10655 10654 10653 10652 10651 10649 10648 10646 10644 10642 10640 10639 10637 10635 10633 10631 10629 10627 10625 10622 10619 10616 10612 10609 10606 10602 10597 10593 10589 10585 10581 10577 10573 10569 10565 10560 10556 10551 10547 10542 10537 10531 10526 10520 10514 10508 10501 10494 10486 10479 10472 10464 10457 10449 10443 10436 10429 10421 10413 10405 10397 10391 10388 10382 10373
10657 10658 10659 10659 10659 10659 10659 10659 10658 10658 10657 10656 10655 10655 10655 10655 10654 10653 10652 10651 10650 10649 10648 10647 10646 10644 10642 10641 10639 10637 10635 10634 10632 10630 10628 10626 10624 10622 10620 10617 10614 10611 10608 10604 10601 10597 10592 10588 10584 10580 10576 10572 10567 10563 10559 10555 10551 10546 10542 10537 10532 10527 10522 10516 10510 10503 10496 10489 10482 10475 10467 10459 10452 10445 10438 10432 10426 10420 10412 10403 10395 10387 10383 10381 10374
10652 10654 10655 10655 10655 10654 10654 10654 10654 10653 10652 10652 10651 10651 10650 10650 10649 10648 10647 10646 10645 10645 10644 10642 10641 10639 10637 10636 10634 10632 10631 10629 10627 10625 10624 10622 10620 10618 10615 10613 10610 10607 10603 10600 10596 10592 10588 10583 10579 10575 10571 10566 10562 10558 10555 10550 10546 10541 10537 10532 10527 10522 10517 10511 10505 10497 10491 10484 10477 10470 10463 10455 10448 10441 10434 10428 10420 10414 10409 10402 10395 10387 10379 10376 10372
10649 10649 10650 10651 10650 10650 10650 10650 10650 10649 10648 10648 10647 10646 10646 10645 10644 10643 10642 10641 10641 10640 10639 10637 10636 10634 10633 10632 10630 10628 10626 10624 10622 10621 10619 10617 10615 10613 10611 10609 10605 10602 10599 10595 10592 10588 10583 10579 10574 10570 10566 10562 10558 10554 10550 10545 10541 10536 10531 10527 10522 10517 10512 10506 10499 10493 10486 10479 10472 10466 10458 10451 10443 10437 10430 10425 10418 10411 10405 10399 10393 10386 10377 10371 10368
10645 10645 10646 10646 10646 10646 10645 10645 10645 10645 10644 10644 10643 10642 10641 10640 10639 10638 10637 10637 10636 10635 10634 10632 10631 10630 10629 10627 10625 10623 10622 10620 10618 10616 10614 10612 10611 10609 10607 10604 10601 10597 10594 10591 10587 10583 10579 10574 10570 10565 10561 10557 10553 10549 10545 10540 10536 10531 10526 10521 10516 10511 10506 10500 10494 10488 10482 10475 10468 10461 10454 10447 10440 10434 10428 10422 10417 10411 10404 10396 10389 10383 10376 10368 10363
10641 10642 10642 10642 10642 10641 10641 10641 10641 10641 10641 10640 10639 10638 10636 10634 10633 10633 10632 10631 10630 10630 10629 10628 10627 10626 10624 10623 10621 10619 10617 10615 10613 10611 10609 10608 10606 10603 10601 10599 10596 10593 10589 10586 10583 10579 10575 10570 10565 10561 10557 10552 10548 10544 10539 10535 10531 10526 10521 10516 10511 10506 10500 10494 10488 10483 10477 10471 10465 10458 10451 10444 10437 10431 10425 10419 10414 10408 10401 10394 10387 10381 10375 10368 10361
10637 10638 10638 10638 10637 10637 10637 10638 10638 10638 10637 10636 10634 10632 10630 10628 10627 10627 10627 10626 10626 10625 10625 10624 10623 10621 10620 10618 10617 10615 10613 10611 10609 10606 10604 10602 10600 10598 10596 10593 10591 10588 10585 10582 10578 10574 10571 10566 10562 10557 10552 10547 10543 10538 10534 10530 10525 10520 10515 10510 10505 10500 10494 10488 10482 10477 10472 10467 10461 10455 10448 10441 10435 10429 10423 10416 10410 10404 10398 10392 10385 10379 10374 10369 10362
10632 10633 10633 10633 10633 10633 10633 10634 10634 10634 10633 10631 10629 10627 10626 10624 10623 10623 10623 10622 10622 10622 10621 10620 10619 10617 10616 10615 10612 10610 10608 10606 10604 10601 10599 10596 10594 10592 10591 10588 10586 10583 10580 10577 10573 10570 10566 10562 10558 10553 10548 10543 10538 10533 10529 10524 10519 10514 10509 10505 10500 10495 10489 10483 10477 10472 10467 10462 10457 10451 10445 10438 10432 10426 10420 10414 10408 10402 10396 10390 10383 10376 10371 10366 10361
10627 10628 10628 10629 10629 10629 10630 10630 10630 10629 10628 10626 10624 10624 10623 10622 10620 10621 10621 10620 10619 10619 10618 10617 10615 10614 10613 10611 10609 10606 10604 10602 10599 10596 10594 10591 10589 10587 10586 10584 10581 10578 10575 10572 10568 10565 10562 10558 10554 10549 10544 10539 10534 10529 10525 10520 10515 10510 10504 10499 10494 10489 10484 10479 10473 10468 10463 10458 10453 10448 10442 10436 10430 10423 10417 10411 10405 10400 10394 10388 10381 10373 10367 10362 10358
10622 10622 10623 10624 10624 10625 10626 10626 10625 10625 10623 10622 10621 10620 10619 10618 10617 10618 10617 10616 10616 10615 10614 10613 10612 10611 10610 10608 10605 10603 10600 10597 10594 10591 10589 10587 10584 10583 10581 10578 10576 10573 10570 10567 10563 10560 10556 10553 10549 10544 10540 10535 10530 10525 10521 10516 10511 10506 10501 10495 10490 10484 10479 10474 10469 10464 10459 10454 10450 10444 10438 10432 10426 10420 10414 10409 10403 10398 10392 10385 10378 10371 10364 10358 10353
10616 10617 10617 10618 10619 10621 10621 10621 10621 10620 10619 10619 10618 10616 10615 10614 10613 10614 10613 10613 10612 10611 10610 10609 10607 10607 10605 10604 10602 10599 10596 10592 10589 10586 10584 10582 10580 10578 10576 10573 10570 10567 10564 10561 10558 10555 10551 10548 10544 10539 10535 10530 10525 10521 10517 10512 10508 10503 10498 10493 10487 10482 10477 10472 10467 10461 10456 10450 10446 10440 10435 10429 10423 10417 10412 10406 10400 10392 10386 10380 10374 10368 10362 10355 10349
10611 10611 10611 10613 10614 10616 10616 10616 10616 10615 10615 10615 10614 10612 10611 10610 10609 10609 10608 10608 10607 10606 10605 10604 10603 10602 10601 10599 10598 10595 10591 10587 10584 10582 10579 10577 10575 10572 10570 10568 10565 10562 10559 10556 10553 10549 10546 10542 10538 10534 10529 10525 10520 10516 10512 10508 10504 10499 10494 10489 10484 10479 10473 10468 10464 10458 10452 10447 10441 10436 10431 10425 10419 10413 10407 10401 10395 10387 10380 10375 10370 10365 10359 10353 10346
10606 10605 10606 10608 10609 10610 10611 10611 10611 10611 10611 10610 10609 10608 10607 10606 10604 10603 10603 10603 10602 10601 10600 10599 10598 10597 10596 10595 10594 10591 10586 10581 10578 10576 10573 10571 10569 10567 10564 10562 10559 10556 10554 10551 10548 10544 10541 10537 10533 10528 10523 10519 10514 10510 10506 10503 10499 10495 10490 10485 10480 10474 10468 10463 10459 10453 10447 10442 10436 10431 10426 10420 10414 10408 10401 10395 10389 10384 10378 10373 10367 10362 10357 10351 10345
10600 10600 10601 10602 10603 10605 10606 10606 10606 10606 10606 10605 10604 10603 10603 10601 10599 10598 10598 10598 10596 10595 10596 10595 10594 10592 10591 10591 10590 10586 10581 10577 10574 10571 10568 10566 10564 10561 10559 10557 10554 10552 10549 10546 10543 10539 10535 10531 10526 10522 10517 10513 10508 10504 10500 10497 10493 10490 10486 10481 10475 10469 10463 10458 10454 10449 10443 10437 10432 10426 10421 10415 10408 10402 10395 10389 10384 10380 10376 10371 10365 10358 10353 10348 10344
10596 10596 10596 10597 10598 10599 10600 10600 10601 10601 10601 10600 10599 10598 10598 10597 10595 10594 10594 10594 10592 10590 10591 10591 10589 10588 10587 10587 10584 10580 10575 10573 10571 10568 10565 10562 10559 10557 10555 10552 10550 10547 10544 10541 10537 10533 10529 10525 10521 10516 10512 10507 10502 10497 10493 10490 10487 10484 10480 10475 10470 10464 10458 10453 10448 10443 10437 10431 10426 10420 10415 10408 10402 10396 10390 10385 10380 10375 10371 10366 10361 10356 10350 10344 10340
10592 10592 10592 10592 10593 10594 10595 10595 10596 10596 10596 10595 10594 10593 10592 10592 10590 10589 10589 10589 10588 10587 10587 10586 10584 10583 10582 10580 10577 10573 10570 10568 10566 10563 10560 10557 10554 10552 10550 10547 10545 10542 10539 10535 10532 10527 10523 10519 10515 10511 10507 10501 10495 10490 10486 10482 10479 10476 10472 10468 10463 10458 10453 10447 10442 10437 10432 10426 10421 10416 10410 10405 10399 10393 10388 10382 10376 10371 10366 10361 10357 10352 10346 10340 10335
10587 10587 10587 10588 10588 10589 10590 10590 10591 10591 10591 10590 10590 10589 10587 10587 10586 10584 10583 10583 10583 10583 10582 10580 10579 10577 10576 10573 10571 10568 10566 10563 10560 10557 10553 10550 10548 10547 10545 10542 10539 10536 10533 10529 10526 10522 10518 10514 10510 10506 10502 10496 10490 10484 10478 10474 10471 10468 10465 10461 10457 10453 10447 10442 10438 10433 10428 10423 10417 10412 10408 10402 10397 10391 10385 10379 10373 10367 10362 10357 10352 10348 10342 10337 10332
10583 10583 10583 10583 10584 10584 10584 10585 10585 10585 10585 10585 10585 10584 10583 10582 10581 10580 10579 10578 10578 10577 10576 10575 10574 10573 10571 10569 10567 10564 10562 10559 10556 10552 10547 10544 10543 10541 10539 10537 10533 10530 10527 10523 10520 10516 10512 10509 10505 10501 10496 10491 10485 10479 10473 10468 10464 10462 10459 10455 10451 10447 10441 10436 10432 10428 10424 10419 10414 10409 10404 10399 10394 10389 10383 10377 10371 10365 10359 10352 10347 10342 10338 10333 10328
10579 10578 10578 10578 10578 10579 10579 10579 10579 10580 10580 10580 10580 10579 10577 10577 10576 10575 10574 10573 10572 10572 10571 10570 10569 10568 10566 10564 10562 10560 10557 10555 10551 10547 10544 10541 10538 10536 10533 10530 10527 10524 10521 10517 10514 10510 10507 10503 10500 10496 10491 10486 10480 10475 10469 10464 10459 10456 10453 10449 10445 10440 10435 10431 10427 10423 10420 10415 10410 10405 10401 10396 10392 10387 10381 10375 10369 10362 10356 10350 10344 10339 10334 10329 10324
10574 10573 10573 10573 10573 10573 10573 10573 10574 10575 10575 10575 10574 10573 10572 10571 10570 10569 10568 10567 10566 10566 10565 10564 10563 10561 10560 10558 10556 10554 10551 10548 10545 10542 10538 10535 10532 10530 10527 10524 10521 10518 10514 10511 10508 10504 10501 10497 10494 10490 10485 10480 10474 10469 10464 10458 10453 10450 10446 10442 10438 10435 10431 10426 10422 10418 10415 10411 10406 10401 10397 10393 10389 10384 10378 10373 10367 10361 10355 10350 10344 10337 10331 10325 10319
10568 10568 10568 10568 10568 10568 10568 10568 10568 10569 10569 10569 10568 10567 10566 10565 10564 10563 10562 10561 10560 10560 10559 10558 10556 10555 10553 10551 10549 10547 10545 10541 10538 10535 10532 10529 10526 10523 10520 10517 10515 10512 10508 10505 10501 10497 10494 10490 10487 10483 10479 10474 10469 10463 10458 10452 10447 10443 10439 10436 10433 10430 10426 10422 10418 10414 10410 10406 10402 10397 10393 10389 10385 10381 10376 10370 10365 10360 10354 10348 10343 10336 10329 10322 10316
10562 10563 10562 10562 10562 10562 10562 10562 10562 10563 10563 10562 10562 10561 10560 10559 10558 10557 10556 10555 10554 10553 10552 10551 10550 10548 10546 10544 10543 10540 10538 10534 10530 10528 10526 10523 10519 10517 10514 10511 10508 10505 10502 10499 10495 10490 10486 10483 10480 10476 10472 10467 10463 10458 10453 10448 10444 10439 10435 10431 10428 10425 10422 10417 10413 10409 10406 10402 10397 10393 10388 10385 10381 10377 10373 10367 10362 10357 10353 10347 10341 10336 10330 10323 10316
10556 10556 10556 10556 10556 10556 10556 10556 10556 10557 10556 10556 10555 10554 10553 10553 10552 10551 10549 10548 10547 10546 10545 10544 10543 10541 10539 10537 10536 10533 10531 10528 10524 10520 10518 10515 10512 10510 10507 10504 10501 10498 10495 10492 10488 10484 10480 10476 10472 10468 10464 10460 10456 10452 10448 10444 10440 10435 10431 10427 10423 10420 10417 10413 10409 10405 10401 10397 10393 10389 10384 10380 10377 10373 10369 10364 10359 10354 10350 10345 10339 10334 10329 10323 10316
10549 10550 10549 10549 10550 10550 10550 10550 10550 10550 10550 10549 10549 10548 10547 10547 10546 10545 10543 10542 10541 10540 10539 10537 10535 10533 10532 10530 10528 10526 10524 10521 10518 10514 10511 10508 10505 10502 10499 10496 10493 10491 10488 10484 10480 10476 10473 10469 10465 10461 10457 10453 10449 10445 10442 10438 10434 10430 10426 10423 10419 10415 10412 10408 10404 10400 10396 10393 10388 10384 10380 10376 10373 10369 10365 10361 10356 10351 10347 10342 10337 10332 10327 10321 10315
10542 10542 10543 10543 10543 10543 10543 10543 10543 10543 10542 10542 10542 10541 10540 10540 10539 10538 10536 10535 10534 10533 10532 10530 10528 10526 10524 10523 10521 10518 10516 10514 10511 10508 10504 10501 10498 10495 10492 10489 10486 10483 10479 10476 10472 10469 10465 10462 10458 10454 10450 10446 10443 10439 10436 10432 10428 10425 10421 10418 10414 10410 10407 10403 10399 10396 10392 10388 10384 10380 10376 10372 10369 10366 10362 10358 10353 10349 10344 10339 10335 10330 10324 10318 10313
10536 10536 10536 10537 10537 10537 10536 10536 10536 10535 10535 10535 10535 10535 10534 10534 10532 10531 10529 10528 10527 10526 10524 10522 10521 10519 10518 10516 10514 10511 10508 10506 10504 10501 10498 10495 10491 10487 10484 10482 10479 10475 10471 10467 10464 10460 10457 10454 10450 10447 10443 10440 10436 10433 10429 10426 10422 10419 10415 10412 10408 10404 10401 10397 10394 10391 10387 10384 10380 10376 10372 10368 10365 10362 10358 10354 10350 10346 10342 10336 10331 10327 10322 10316 10310
10529 10530 10530 10530 10530 10530 10530 10530 10530 10529 10528 10528 10528 10528 10527 10526 10525 10524 10522 10521 10520 10519 10516 10515 10514 10512 10511 10509 10506 10504 10502 10500 10497 10494 10492 10489 10485 10481 10477 10474 10471 10467 10463 10459 10456 10452 10449 10446 10443 10440 10436 10433 10429 10426 10423 10419 10416 10413 10410 10406 10402 10398 10395 10392 10389 10386 10382 10379 10375 10371 10367 10364 10361 10357 10354 10351 10347 10343 10338 10334 10329 10324 10320 10314 10308
10523 10524 10524 10524 10524 10524 10524 10524 10524 10523 10521 10521 10521 10521 10520 10519 10518 10517 10515 10514 10512 10510 10508 10507 10506 10505 10504 10502 10499 10496 10495 10493 10490 10487 10485 10482 10478 10475 10471 10467 10463 10460 10456 10452 10448 10445 10442 10439 10436 10432 10429 10425 10422 10419 10416 10412 10409 10406 10403 10400 10396 10394 10391 10387 10384 10380 10377 10374 10370 10366 10362 10358 10356 10353 10350 10347 10343 10339 10335 10331 10327 10322 10317 10312 10307
10517 10517 10517 10517 10517 10518 10517 10517 10517 10517 10516 10515 10514 10513 10512 10511 10510 10509 10508 10506 10504 10502 10501 10500 10499 10498 10497 10495 10491 10488 10487 10486 10483 10480 10477 10473 10470 10467 10464 10461 10457 10453 10449 10445 10441 10438 10435 10432 10428 10424 10421 10418 10415 10412 10409 10405 10402 10399 10397 10394 10392 10389 10386 10382 10378 10375 10372 10368 10365 10361 10357 10354 10351 10348 10345 10342 10339 10336 10332 10328 10324 10320 10315 10310 10305
10511 10511 10510 10510 10511 10511 10511 10510 10510 10510 10510 10509 10507 10506 10505 10504 10502 10501 10500 10498 10496 10495 10493 10493 10492 10490 10488 10486 10483 10480 10479 10478 10475 10472 10469 10466 10463 10459 10457 10453 10449 10445 10441 10438 10434 10430 10428 10424 10421 10417 10414 10411 10408 10405 10402 10399 10396 10393 10391 10388 10386 10383 10380 10376 10373 10369 10366 10363 10360 10356 10352 10349 10346 10343 10341 10338 10334 10331 10328 10324 10320 10316 10313 10309 10303
10504 10504 10504 10504 10504 10504 10504 10504 10503 10503 10502 10501 10500 10499 10497 10496 10494 10493 10492 10490 10489 10487 10486 10485 10484 10482 10480 10477 10475 10473 10471 10469 10467 10464 10461 10458 10455 10452 10448 10445 10441 10437 10433 10430 10427 10423 10420 10417 10413 10410 10407 10405 10402 10399 10396 10392 10390 10387 10385 10382 10379 10376 10373 10370 10367 10364 10361 10358 10355 10351 10348 10344 10341 10339 10336 10334 10331 10327 10324 10320 10317 10313 10310 10306 10301
10497 10497 10497 10497 10497 10497 10497 10496 10496 10495 10494 10493 10493 10492 10490 10489 10487 10485 10483 10482 10480 10479 10478 10477 10475 10473 10471 10469 10467 10465 10463 10460 10458 10455 10451 10448 10445 10443 10439 10436 10433 10429 10425 10421 10418 10415 10412 10409 10406 10402 10399 10397 10395 10392 10389 10386 10383 10381 10378 10375 10372 10369 10366 10364 10361 10358 10355 10352 10349 10346 10342 10339 10336 10334 10331 10328 10326 10324 10321 10317 10313 10309 10306 10303 10299
10490 10490 10490 10490 10489 10489 10489 10488 10488 10487 10487 10486 10485 10484 10483 10482 10481 10478 10476 10474 10472 10470 10469 10468 10466 10464 10462 10460 10458 10457 10455 10452 10449 10446 10442 10439 10435 10432 10429 10427 10424 10421 10417 10413 10410 10407 10404 10401 10398 10395 10392 10389 10386 10384 10381 10378 10376 10373 10371 10367 10364 10361 10359 10357 10354 10351 10349 10347 10344 10340 10337 10334 10331 10329 10327 10323 10320 10318 10316 10312 10308 10305 10302 10299 10296
10483 10482 10482 10482 10482 10481 10481 10481 10480 10480 10479 10478 10478 10477 10475 10473 10472 10471 10468 10466 10464 10461 10460 10459 10456 10454 10453 10451 10449 10448 10446 10443 10441 10437 10434 10430 10426 10423 10420 10417 10414 10411 10408 10405 10402 10400 10397 10393 10389 10386 10383 10380 10378 10375 10373 10370 10368 10366 10363 10360 10357 10354 10352 10350 10347 10345 10343 10341 10338 10335 10332 10329 10327 10325 10322 10318 10315 10313 10311 10308 10305 10301 10298 10296 10293
10475 10475 10474 10474 10474 10474 10473 10473 10472 10472 10471 10470 10469 10468 10467 10466 10464 10462 10460 10458 10455 10452 10451 10450 10447 10445 10444 10442 10440 10438 10437 10434 10431 10428 10425 10421 10417 10414 10411 10408 10405 10402 10400 10397 10394 10392 10389 10385 10381 10378 10375 10372 10369 10367 10365 10363 10360 10358 10355 10352 10349 10347 10345 10343 10340 10339 10337 10335 10332 10329 10326 10323 10321 10320 10317 10314 10311 10308 10306 10304 10301 10297 10294 10292 10289
10467 10467 10468 10468 10467 10467 10466 10465 10464 10463 10463 10462 10461 10460 10459 10458 10456 10454 10452 10450 10447 10444 10442 10441 10438 10436 10435 10433 10430 10428 10427 10424 10421 10418 10415 10412 10408 10405 10402 10399 10396 10393 10391 10388 10386 10384 10380 10377 10373 10370 10367 10364 10361 10359 10357 10355 10352 10350 10348 10345 10343 10341 10339 10336 10334 10332 10330 10328 10326 10323 10320 10318 10316 10314 10312 10309 10306 10303 10301 10299 10296 10293 10290 10287 10285
10460 10461 10460 10460 10460 10459 10457 10456 10455 10454 10453 10453 10452 10452 10451 10449 10448 10446 10444 10442 10439 10436 10433 10432 10430 10427 10426 10423 10420 10418 10417 10414 10410 10407 10404 10401 10398 10395 10392 10389 10386 10384 10382 10379 10377 10375 10372 10368 10365 10362 10359 10356 10354 10351 10349 10347 10345 10343 10341 10338 10336 10334 10332 10330 10327 10325 10323 10322 10320 10318 10315 10313 10310 10308 10306 10303 10300 10298 10296 10294 10292 10289 10286 10283 10281
10453 10453 10452 10452 10451 10450 10449 10448 10447 10446 10445 10444 10444 10443 10442 10440 10439 10438 10435 10433 10431 10428 10425 10423 10421 10419 10416 10413 10409 10408 10407 10404 10400 10397 10394 10391 10388 10385 10382 10379 10376 10374 10372 10370 10368 10365 10362 10359 10357 10354 10351 10349 10346 10344 10342 10339 10337 10335 10333 10331 10329 10327 10325 10323 10321 10319 10317 10316 10314 10311 10309 10307 10304 10302 10300 10297 10295 10292 10290 10288 10287 10284 10281 10278 10276
10445 10445 10444 10443 10443 10442 10441 10440 10439 10438 10437 10436 10435 10434 10432 10431 10429 10428 10426 10424 10422 10419 10416 10414 10411 10410 10407 10403 10399 10397 10397 10394 10390 10387 10383 10380 10378 10375 10373 10370 10367 10364 10362 10360 10358 10355 10353 10350 10348 10345 10342 10340 10338 10336 10334 10331 10329 10328 10326 10324 10322 10320 10318 10315 10314 10312 10311 10309 10307 10305 10303 10301 10298 10296 10294 10291 10289 10286 10284 10282 10281 10279 10275 10273 10271
10437 10437 10436 10435 10434 10434 10433 10432 10430 10429 10428 10427 10426 10425 10423 10421 10419 10417 10415 10414 10412 10410 10407 10404 10401 10400 10398 10393 10389 10387 10385 10383 10380 10376 10372 10369 10367 10365 10363 10360 10357 10354 10352 10349 10347 10345 10343 10341 10339 10336 10333 10331 10330 10328 10325 10324 10322 10319 10318 10317 10315 10313 10310 10308 10307 10306 10305 10303 10301 10299 10297 10294 10292 10289 10287 10285 10283 10280 10278 10276 10275 10272 10269 10267 10265
10429 10428 10427 10427 10426 10426 10424 10423 10421 10420 10419 10419 10417 10416 10414 10412 10410 10408 10405 10403 10401 10399 10397 10394 10391 10389 10386 10383 10379 10376 10374 10372 10369 10365 10362 10359 10356 10354 10352 10349 10347 10344 10341 10339 10336 10335 10333 10331 10329 10327 10325 10323 10321 10320 10318 10316 10314 10312 10310 10309 10307 10305 10303 10302 10300 10299 10298 10296 10294 10292 10290 10288 10285 10283 10281 10279 10277 10274 10272 10270 10268 10266 10263 10261 10259
10420 10419 10419 10419 10418 10417 10416 10414 10412 10411 10410 10409 10408 10406 10404 10402 10400 10398 10395 10393 10391 10388 10385 10383 10380 10378 10375 10372 10368 10366 10363 10361 10357 10354 10351 10348 10346 10343 10341 10338 10336 10334 10331 10329 10327 10325 10323 10321 10320 10318 10316 10314 10313 10312 10310 10308 10306 10305 10303 10302 10300 10298 10297 10295 10293 10292 10290 10289 10287 10285 10284 10281 10279 10277 10275 10272 10270 10268 10266 10264 10261 10260 10258 10256 10254
10411 10411 10410 10410 10409 10409 10407 10406 10403 10402 10400 10399 10398 10396 10394 10392 10390 10388 10385 10383 10381 10378 10375 10372 10369 10367 10364 10361 10358 10355 10352 10349 10346 10343 10340 10337 10335 10332 10329 10327 10325 10323 10321 10319 10318 10316 10314 10313 10311 10310 10308 10306 10305 10304 10303 10301 10299 10297 10296 10295 10293 10292 10289 10287 10286 10285 10284 10282 10280 10278 10276 10274 10272 10270 10268 10266 10263 10261 10259 10257 10254 10252 10250 10248 10247
10403 10403 10402 10401 10401 10400 10398 10397 10395 10393 10391 10389 10387 10386 10384 10381 10379 10377 10374 10372 10370 10367 10364 10361 10358 10355 10352 10350 10347 10344 10341 10338 10335 10332 10329 10326 10324 10322 10319 10317 10316 10314 10312 10311 10309 10308 10306 10304 10303 10301 10300 10298 10297 10296 10295 10293 10292 10290 10289 10288 10286 10284 10282 10280 10279 10278 10277 10275 10273 10270 10268 10266 10265 10263 10261 10259 10257 10255 10252 10250 10247 10245 10243 10241 10240
10395 10394 10394 10393 10392 10391 10390 10388 10386 10384 10382 10380 10378 10377 10375 10372 10369 10366 10363 10361 10359 10356 10353 10350 10347 10343 10341 10338 10336 10333 10330 10327 10323 10321 10318 10316 10314 10312 10310 10309 10307 10305 10304 10302 10301 10300 10298 10296 10295 10293 10292 10290 10289 10288 10287 10286 10284 10283 10282 10280 10279 10276 10274 10272 10272 10271 10269 10267 10265 10263 10261 10259 10257 10254 10252 10251 10249 10247 10245 10243 10241 10239 10237 10235 10234
10386 10385 10384 10383 10383 10382 10380 10379 10377 10375 10373 10371 10369 10367 10365 10362 10359 10356 10353 10350 10348 10345 10343 10339 10336 10333 10330 10327 10324 10322 10320 10317 10313 10311 10309 10306 10304 10303 10301 10300 10298 10296 10295 10294 10293 10291 10290 10288 10287 10286 10284 10283 10281 10280 10280 10278 10277 10275 10274 10273 10271 10269 10266 10264 10263 10262 10261 10259 10257 10255 10253 10251 10249 10247 10244 10243 10241 10239 10237 10235 10233 10232 10230 10229 10227
10377 10376 10375 10374 10372 10371 10370 10369 10367 10366 10364 10361 10359 10357 10355 10352 10349 10347 10344 10340 10337 10335 10332 10328 10325 10322 10318 10315 10313 10311 10309 10306 10304 10302 10300 10298 10296 10294 10292 10291 10289 10288 10287 10286 10285 10283 10281 10280 10279 10278 10276 10275 10274 10273 10272 10270 10268 10267 10266 10265 10263 10261 10259 10257 10255 10253 10252 10251 10249 10247 10245 10244 10241 10239 10237 10235 10233 10231 10229 10227 10226 10224 10223 10222 10220